| time (UTC) | temp F | wind direction | speed MPH | gust MPH | rain 1hr in | rain 24hr in | rain mn in | humidity % | barometer mb |
| 20260503221139 | 60 | 188 | 0.0 | 0.0 | 0.00 | 0.00 | 0.00 | 69 | 1018.1 |
| 20260503220123 | 59 | 188 | 0.0 | 0.0 | 0.00 | 0.00 | 0.00 | 68 | 1018.1 |
| 20260503215130 | 59 | 188 | 0.0 | 2.0 | 0.00 | 0.00 | 0.00 | 69 | 1018.0 |
| 20260503214119 | 60 | 188 | 0.0 | 2.0 | 0.00 | 0.00 | 0.00 | 69 | 1018.1 |
| 20260503213120 | 60 | 188 | 0.0 | 1.0 | 0.00 | 0.00 | 0.00 | 68 | 1018.0 |
| 20260503212123 | 60 | 188 | 0.0 | 1.0 | 0.00 | 0.00 | 0.00 | 68 | 1018.0 |
| 20260503211124 | 60 | 188 | 0.0 | 1.0 | 0.00 | 0.00 | 0.00 | 68 | 1017.9 |
| 20260503210126 | 60 | 188 | 0.0 | 0.0 | 0.00 | 0.00 | 0.00 | 66 | 1017.9 |
| 20260503205131 | 61 | 188 | 0.0 | 0.0 | 0.00 | 0.00 | 0.00 | 66 | 1017.9 |
| 20260503204134 | 61 | 188 | 0.0 | 2.0 | 0.00 | 0.00 | 0.00 | 65 | 1017.9 |
| 20260503203137 | 61 | 188 | 1.0 | 3.0 | 0.00 | 0.00 | 0.00 | 65 | 1017.9 |
| 20260503202122 | 61 | 188 | 0.0 | 2.0 | 0.00 | 0.00 | 0.00 | 64 | 1017.9 |
| 20260503201148 | 60 | 188 | 0.0 | 3.0 | 0.00 | 0.00 | 0.00 | 65 | 1017.9 |
| 20260503200130 | 61 | 188 | 1.0 | 3.0 | 0.00 | 0.00 | 0.00 | 65 | 1017.9 |
| 20260503195147 | 61 | 188 | 0.0 | 2.0 | 0.00 | 0.00 | 0.00 | 64 | 1017.8 |
| 20260503194132 | 61 | 188 | 0.0 | 1.0 | 0.00 | 0.00 | 0.00 | 62 | 1017.6 |
| 20260503193119 | 61 | 188 | 0.0 | 1.0 | 0.00 | 0.00 | 0.00 | 63 | 1017.5 |
| 20260503192143 | 62 | 188 | 0.0 | 2.0 | 0.00 | 0.00 | 0.00 | 63 | 1017.5 |
| 20260503191121 | 62 | 188 | 0.0 | 2.0 | 0.00 | 0.00 | 0.00 | 62 | 1017.4 |
| 20260503190123 | 63 | 188 | 1.0 | 2.0 | 0.00 | 0.00 | 0.00 | 62 | 1017.3 |
| 20260503185129 | 64 | 188 | 1.0 | 2.0 | 0.00 | 0.00 | 0.00 | 62 | 1017.2 |
| 20260503184130 | 65 | 188 | 0.0 | 2.0 | 0.00 | 0.00 | 0.00 | 60 | 1017.1 |
| 20260503183135 | 66 | 188 | 0.0 | 2.0 | 0.00 | 0.00 | 0.00 | 56 | 1017.0 |
| 20260503182118 | 66 | 188 | 0.0 | 2.0 | 0.00 | 0.00 | 0.00 | 54 | 1017.0 |
| 20260503181122 | 67 | 188 | 0.0 | 1.0 | 0.00 | 0.00 | 0.00 | 54 | 1017.1 |
| 20260503180123 | 67 | 188 | 0.0 | 2.0 | 0.00 | 0.00 | 0.00 | 53 | 1017.2 |
| 20260503175128 | 67 | 188 | 1.0 | 3.0 | 0.00 | 0.00 | 0.00 | 53 | 1017.1 |
| 20260503174153 | 68 | 188 | 1.0 | 2.0 | 0.00 | 0.00 | 0.00 | 52 | 1017.2 |
| 20260503173116 | 68 | 188 | 0.0 | 1.0 | 0.00 | 0.00 | 0.00 | 49 | 1017.2 |
| 20260503172146 | 69 | 188 | 0.0 | 1.0 | 0.00 | 0.00 | 0.00 | 49 | 1017.3 |
| 20260503171129 | 69 | 188 | 0.0 | 1.0 | 0.00 | 0.00 | 0.00 | 47 | 1017.3 |
| 20260503170116 | 69 | 188 | 0.0 | 2.0 | 0.00 | 0.00 | 0.00 | 46 | 1017.2 |
| 20260503160130 | 70 | 188 | 1.0 | 2.0 | 0.00 | 0.00 | 0.00 | 45 | 1017.4 |
| 20260503150117 | 71 | 199 | 1.0 | 3.0 | 0.00 | 0.00 | 0.00 | 45 | 1018.0 |
| 20260503140147 | 71 | 174 | 1.0 | 3.0 | 0.00 | 0.00 | 0.00 | 44 | 1018.4 |
| 20260503131115 | 71 | 86 | 0.0 | 5.0 | 0.00 | 0.00 | 0.00 | 46 | 1018.8 |
| 20260503130122 | 71 | 92 | 2.0 | 5.0 | 0.00 | 0.00 | 0.00 | 44 | 1018.9 |
| 20260503120115 | 73 | 102 | 1.0 | 5.0 | 0.00 | 0.00 | 0.00 | 40 | 1019.1 |
| 20260503110125 | 72 | 129 | 1.0 | 4.0 | 0.00 | 0.00 | 0.00 | 48 | 1019.0 |
| 20260503100128 | 70 | 61 | 1.0 | 4.0 | 0.00 | 0.00 | 0.00 | 52 | 1019.5 |
| 20260503090127 | 69 | 47 | 2.0 | 4.0 | 0.00 | 0.00 | 0.00 | 55 | 1019.5 |
| 20260503081119 | 68 | 39 | 1.0 | 5.0 | 0.00 | 0.00 | 0.00 | 57 | 1019.6 |
| 20260503080124 | 67 | 36 | 2.0 | 5.0 | 0.00 | 0.00 | 0.00 | 56 | 1019.6 |
| 20260503072130 | 65 | 50 | 2.0 | 4.0 | 0.00 | 0.00 | 0.00 | 60 | 1019.7 |
| 20260503071119 | 64 | 49 | 2.0 | 6.0 | 0.00 | 0.00 | 0.00 | 62 | 1019.7 |
| 20260503070126 | 63 | 50 | 0.0 | 6.0 | 0.00 | 0.00 | 0.00 | 63 | 1019.7 |
| 20260503060121 | 58 | 30 | 0.0 | 4.0 | 0.00 | 0.00 | 0.00 | 68 | 1019.7 |
| 20260503054138 | 58 | 65 | 1.0 | 4.0 | 0.00 | 0.00 | 0.00 | 67 | 1019.7 |
| 20260503053122 | 58 | 57 | 2.0 | 4.0 | 0.00 | 0.00 | 0.00 | 67 | 1019.7 |
| 20260503052149 | 58 | 221 | 1.0 | 5.0 | 0.00 | 0.00 | 0.00 | 67 | 1019.6 |
| 20260503051155 | 58 | 72 | 1.0 | 4.0 | 0.00 | 0.00 | 0.00 | 66 | 1019.5 |
| 20260503050142 | 58 | 90 | 1.0 | 3.0 | 0.00 | 0.00 | 0.00 | 66 | 1019.5 |
| 20260503045125 | 58 | 104 | 1.0 | 3.0 | 0.00 | 0.00 | 0.00 | 66 | 1019.6 |
| 20260503044150 | 57 | 184 | 2.0 | 5.0 | 0.00 | 0.00 | 0.00 | 67 | 1019.6 |
| 20260503043134 | 57 | 229 | 0.0 | 2.0 | 0.00 | 0.00 | 0.00 | 69 | 1019.6 |
| 20260503042118 | 57 | 229 | 0.0 | 3.0 | 0.00 | 0.00 | 0.00 | 69 | 1019.6 |
| 20260503041128 | 57 | 66 | 0.0 | 2.0 | 0.00 | 0.00 | 0.00 | 68 | 1019.6 |
| 20260503040154 | 57 | 236 | 0.0 | 3.0 | 0.00 | 0.00 | 0.00 | 69 | 1019.6 |
| 20260503035119 | 56 | 238 | 0.0 | 2.0 | 0.00 | 0.00 | 0.00 | 70 | 1019.7 |
| 20260503034126 | 56 | 225 | 0.0 | 4.0 | 0.00 | 0.00 | 0.00 | 70 | 1019.7 |
| 20260503033117 | 57 | 103 | 1.0 | 2.0 | 0.00 | 0.00 | 0.00 | 68 | 1019.7 |
| 20260503032140 | 58 | 9 | 1.0 | 3.0 | 0.00 | 0.00 | 0.00 | 67 | 1019.8 |
| 20260503031124 | 58 | 185 | 1.0 | 4.0 | 0.00 | 0.00 | 0.00 | 67 | 1019.8 |
| 20260503030130 | 58 | 151 | 1.0 | 5.0 | 0.00 | 0.00 | 0.00 | 67 | 1019.8 |
| 20260503025120 | 58 | 186 | 2.0 | 4.0 | 0.00 | 0.00 | 0.00 | 67 | 1019.7 |
| 20260503024126 | 58 | 78 | 1.0 | 3.0 | 0.00 | 0.00 | 0.00 | 67 | 1019.8 |
| 20260503023133 | 58 | 118 | 1.0 | 5.0 | 0.00 | 0.00 | 0.00 | 67 | 1019.8 |
| 20260503022138 | 58 | 306 | 1.0 | 4.0 | 0.00 | 0.00 | 0.00 | 66 | 1020.0 |
| 20260503021145 | 59 | 204 | 1.0 | 4.0 | 0.00 | 0.00 | 0.00 | 66 | 1020.0 |
| 20260503020133 | 58 | 117 | 2.0 | 7.0 | 0.00 | 0.00 | 0.00 | 66 | 1020.1 |
| 20260503015120 | 58 | 69 | 1.0 | 4.0 | 0.00 | 0.00 | 0.00 | 67 | 1020.1 |
| 20260503014126 | 59 | 134 | 0.0 | 2.0 | 0.00 | 0.00 | 0.00 | 66 | 1020.1 |
| 20260503013116 | 59 | 146 | 1.0 | 4.0 | 0.00 | 0.00 | 0.00 | 66 | 1020.1 |
| 20260503012123 | 59 | 355 | 1.0 | 5.0 | 0.00 | 0.00 | 0.00 | 65 | 1020.3 |
| 20260503011129 | 59 | 95 | 0.0 | 3.0 | 0.00 | 0.00 | 0.00 | 66 | 1020.3 |
| 20260503010134 | 59 | 113 | 1.0 | 5.0 | 0.00 | 0.00 | 0.00 | 66 | 1020.4 |
| 20260503005125 | 59 | 237 | 1.0 | 4.0 | 0.00 | 0.00 | 0.00 | 66 | 1020.4 |
| 20260503004132 | 59 | 169 | 1.0 | 3.0 | 0.00 | 0.00 | 0.00 | 67 | 1020.5 |
| 20260503003119 | 59 | 173 | 0.0 | 5.0 | 0.00 | 0.00 | 0.00 | 67 | 1020.6 |
| 20260503002143 | 59 | 136 | 1.0 | 3.0 | 0.00 | 0.00 | 0.00 | 67 | 1020.7 |
| 20260503001126 | 58 | 283 | 0.0 | 2.0 | 0.00 | 0.00 | 0.00 | 68 | 1020.9 |
| 20260503000116 | 57 | 178 | 2.0 | 5.0 | 0.00 | 0.00 | 0.00 | 69 | 1020.9 |
| 20260502235118 | 57 | 151 | 1.0 | 5.0 | 0.00 | 0.00 | 0.00 | 68 | 1021.0 |
| 20260502234125 | 58 | 150 | 0.0 | 2.0 | 0.00 | 0.00 | 0.00 | 68 | 1021.1 |
| 20260502233116 | 58 | 150 | 0.0 | 2.0 | 0.00 | 0.00 | 0.00 | 67 | 1021.1 |
| 20260502232121 | 58 | 150 | 0.0 | 2.0 | 0.00 | 0.00 | 0.00 | 67 | 1021.2 |
| 20260502231127 | 58 | 150 | 0.0 | 3.0 | 0.00 | 0.00 | 0.00 | 67 | 1021.3 |
| 20260502230153 | 58 | 151 | 0.0 | 1.0 | 0.00 | 0.00 | 0.00 | 67 | 1021.3 |
| 20260502225116 | 58 | 151 | 1.0 | 3.0 | 0.00 | 0.00 | 0.00 | 67 | 1021.3 |
| 20260502224128 | 58 | 148 | 0.0 | 3.0 | 0.00 | 0.00 | 0.00 | 69 | 1021.3 |
| 20260502223134 | 57 | 149 | 0.0 | 1.0 | 0.00 | 0.00 | 0.00 | 69 | 1021.3 |
| 20260502222140 | 57 | 149 | 1.0 | 3.0 | 0.00 | 0.00 | 0.00 | 68 | 1021.4 |